Home > Weather > Durban > Past weeks

Flag for South Africa Weather for the Past 2 Weeks in Durban, South Africa

Now
79 °F

Passing clouds.


Feels Like: 80 °F
Forecast: 61 / 82 °F
Wind: 10 mph from Southeast

Location: King Shaka International Airport

Current Time: Feb 6, 2016 at 2:22:45 PM

Latest Report: Feb 6, 2016 at 2:00 PM


Visibility: N/A

Pressure: 29.98 "Hg

Humidity: 51%

Dew point: 59 °F

Location of DurbanLocation

Historic Weather in Durban — Graph

°F

Durban Temperature Yesterday

Maximum temperature yesterday: 79 °F (at 10:00 AM)
Minimum temperature yesterday: 64 °F (at 5:00 AM)
Average temperature yesterday: 73 °F

High & Low Weather Summary for the Past Weeks

 TemperatureHumidityPressure
High91 °F (Jan 24, 2:00 PM)94% (Jan 23, 6:00 AM)30.15 "Hg (Jan 23, 6:00 AM)
Low64 °F (Feb 5, 5:00 AM)42% (Feb 5, 10:00 AM)29.59 "Hg (Jan 24, 2:00 PM)
Average77 °F76%29.95 "Hg
* Reported Jan 22 1:00 PM — Feb 6 1:00 PM, Durban, Weather by CustomWeather, © 2016

Note: Actual official high and low records may vary slightly from our data, if they occured in-between our weather recording intervals... More about our weather records

Advertising

Durban Weather History for the Previous 24 Hours

 ConditionsComfort  
Time TempWeatherWind HumidityBarometerVisibility
1:00 PM
Sat, Feb 6
77 °FPassing clouds.10 mph54%29.98 "HgN/A
12:00 PM77 °FPassing clouds.12 mph57%30.01 "HgN/A
11:00 AM79 °FScattered clouds.15 mph54%30.01 "HgN/A
10:00 AM77 °FScattered clouds.16 mph61%30.04 "HgN/A
9:00 AM77 °FScattered clouds.9 mph61%30.04 "HgN/A
8:00 AM75 °FScattered clouds.9 mph65%30.07 "HgN/A
7:00 AM72 °FPassing clouds.5 mph73%30.07 "HgN/A
6:00 AM66 °FScattered clouds.3 mph83%30.07 "HgN/A
5:00 AM66 °FPassing clouds.5 mph83%30.04 "HgN/A
4:00 AM70 °FPassing clouds.6 mph78%30.04 "HgN/A
2:00 AM72 °FPartly cloudy.7 mph69%30.07 "HgN/A
1:00 AM70 °FPartly cloudy.3 mph78%30.07 "HgN/A
12:00 AM72 °FPassing clouds.5 mph73%30.07 "HgN/A
11:00 PM
Fri, Feb 5
72 °FPassing clouds.3 mph78%30.09 "HgN/A
10:00 PM73 °FPassing clouds.6 mph69%30.09 "HgN/A
8:00 PM70 °FPassing clouds.5 mph73%30.09 "HgN/A
7:00 PM72 °FPassing clouds.10 mph73%30.07 "HgN/A
6:00 PM75 °FPartly cloudy.14 mph65%30.04 "HgN/A
5:00 PM75 °FBroken clouds.17 mph65%30.04 "HgN/A
4:00 PM77 °FBroken clouds.18 mph61%30.04 "HgN/A
3:00 PM79 °FScattered clouds.22 mph54%30.04 "HgN/A
2:00 PM79 °FScattered clouds.22 mph51%30.04 "HgN/A
Weather by CustomWeather, © 2016

See weather overviewHow to use our weather pages